Monroe, LA

9:35 AM CDT on April 26, 2017 (GMT -0500)
Monroe Regional

Weather History for KMLU - March, 2013

Change the Weather History Date:

Tuesday, March 5, 2013

  Actual Average Record
Temperature  
Mean Temperature 56 °F 55 °F  
Max Temperature 66 °F 66 °F 84 °F (1955)
Min Temperature 45 °F 44 °F 19 °F (1978)
Degree Days  
Heating Degree Days 9 11  
Month to date heating degree days 86 55  
Since 1 July heating degree days 1748 1949  
Cooling Degree Days 0 1  
Month to date cooling degree days 0 3  
Year to date cooling degree days 13 14  
Growing Degree Days 7 (Base 50)    
Moisture  
Dew Point 43 °F    
Average Humidity 58    
Maximum Humidity 87    
Minimum Humidity 28    
Precipitation  
Precipitation T in 0.17 in 2.70 in (1935)
Month to date precipitation T 0.84  
Year to date precipitation 14.45 10.48  
Snow  
Snow 0.00 in - - ()
Month to date snowfall 0.0  
Since 1 July snowfall 0.3  
Snow Depth 0.00 in    
Sea Level Pressure  
Sea Level Pressure 30.03 in    
Wind  
Wind Speed 13 mph (West)    
Max Wind Speed 29 mph    
Max Gust Speed 38 mph    
Visibility 10 miles    
Events Rain    
T = Trace of Precipitation, MM = Missing Value Source: NWS Daily Summary

Daily Weather History Graph

Daily Weather History Graph

Search for Another Location

Airport or City:

Trip Planner

Search our weather history database for the weather conditions in past years. The results will help you decide how hot, cold, wet, or windy it might be!

Date:

Astronomy

Mar. 05, 2013 Rise Set
Actual Time 6:30 AM CST 6:08 PM CST
Civil Twilight 6:06 AM CST 6:33 PM CST
Nautical Twilight 5:37 AM CST 7:02 PM CST
Astronomical Twilight 5:09 AM CST 7:30 PM CST
Moon 1:28 AM CST (3/5) 12:02 PM CST (3/5)
Length of Visible Light 12h 27m
Length of Day
11h 38m
Last Quarter, 40% of the Moon is Illuminated
Mar 5
Last Quarter
Mar 11
New
Mar 19
First Quarter
Mar 27
Full
Apr 2
Last Quarter

Hourly Weather History & Observations

Time (CST) Temp. Windchill Dew Point Humidity Pressure Visibility Wind Dir Wind Speed Gust Speed Precip Events Conditions
1:45 AM 64.4 °F - 57.2 °F 77% 29.82 in 10.0 mi South 8.1 mph - N/A   Overcast
1:53 AM 64.0 °F - 57.0 °F 78% 29.82 in 10.0 mi South 9.2 mph - N/A   Overcast
2:27 AM 64.4 °F - 57.2 °F 77% 29.81 in 10.0 mi South 9.2 mph - N/A   Overcast
2:53 AM 64.0 °F - 57.9 °F 80% 29.80 in 10.0 mi South 6.9 mph - N/A   Overcast
3:53 AM 66.0 °F - 57.9 °F 75% 29.83 in 10.0 mi SW 10.4 mph - N/A   Overcast
4:53 AM 64.9 °F - 59.0 °F 81% 29.89 in 10.0 mi SW 10.4 mph - 0.00 in Rain Light Rain
5:11 AM 64.4 °F - 59.0 °F 83% 29.90 in 10.0 mi SW 10.4 mph - 0.00 in   Overcast
5:53 AM 64.0 °F - 59.0 °F 84% 29.90 in 10.0 mi SSW 8.1 mph - 0.00 in   Overcast
6:30 AM 64.4 °F - 59.0 °F 83% 29.90 in 10.0 mi SSW 8.1 mph - 0.00 in Rain Light Rain
6:53 AM 64.0 °F - 59.0 °F 84% 29.90 in 10.0 mi SSW 9.2 mph - 0.00 in   Overcast
7:44 AM 64.4 °F - 60.8 °F 88% 29.92 in 10.0 mi WSW 12.7 mph - 0.00 in   Overcast
7:53 AM 64.9 °F - 60.1 °F 84% 29.92 in 10.0 mi WSW 8.1 mph - 0.00 in   Overcast
8:23 AM 60.8 °F - 51.8 °F 72% 29.98 in 10.0 mi WNW 21.9 mph 34.5 mph N/A   Overcast
8:49 AM 57.2 °F - 48.2 °F 72% 30.01 in 10.0 mi NW 16.1 mph 27.6 mph 0.00 in   Overcast
8:53 AM 57.9 °F - 48.0 °F 70% 30.01 in 10.0 mi NW 17.3 mph 27.6 mph 0.00 in   Overcast
9:53 AM 60.1 °F - 42.1 °F 51% 30.05 in 10.0 mi WNW 21.9 mph 25.3 mph N/A   Partly Cloudy
10:53 AM 60.1 °F - 39.0 °F 46% 30.09 in 10.0 mi NW 18.4 mph 29.9 mph N/A   Clear
11:53 AM 63.0 °F - 39.0 °F 41% 30.09 in 10.0 mi NNW 19.6 mph 26.5 mph N/A   Clear
12:53 PM 63.0 °F - 35.1 °F 35% 30.10 in 10.0 mi NW 11.5 mph 21.9 mph N/A   Clear
1:53 PM 64.9 °F - 33.1 °F 31% 30.10 in 10.0 mi WNW 17.3 mph 23.0 mph N/A   Clear
2:53 PM 64.9 °F - 33.1 °F 31% 30.10 in 10.0 mi WNW 18.4 mph 24.2 mph N/A   Clear
3:53 PM 64.0 °F - 30.0 °F 28% 30.12 in 10.0 mi WNW 18.4 mph - N/A   Clear
4:53 PM 63.0 °F - 30.0 °F 29% 30.13 in 10.0 mi NNW 15.0 mph 20.7 mph N/A   Clear
5:53 PM 59.0 °F - 28.0 °F 31% 30.15 in 10.0 mi NW 11.5 mph 23.0 mph N/A   Clear
6:53 PM 55.9 °F - 28.0 °F 34% 30.18 in 10.0 mi WNW 9.2 mph - N/A   Clear
7:53 PM 53.1 °F - 24.1 °F 32% 30.21 in 10.0 mi NW 12.7 mph - N/A   Clear
8:53 PM 51.1 °F - 21.9 °F 32% 30.23 in 10.0 mi NW 13.8 mph - N/A   Clear
9:53 PM 50.0 °F - 21.9 °F 33% 30.27 in 10.0 mi NNW 10.4 mph - N/A   Clear
10:53 PM 48.0 °F - 23.0 °F 37% 30.29 in 10.0 mi NNW 9.2 mph - N/A   Clear
11:53 PM 46.0 °F 41.0 °F 21.9 °F 39% 30.29 in 10.0 mi NNW 10.4 mph - N/A   Clear